Location: Munderkingen
(48.2395°N, 9.6433°E)
Time: 06:53:02
(UTC+01:00)

Amateur Radio Satellites - All Passes

Search period start: 25 November 2017 06:23
Search period end: 26 November 2017 06:23
Location: Munderkingen, 48.2395°N, 9.6433°E

Satellite Date Start Highest point End Downlink Frequencies (MHz)
Time Altitude Azimuth
XW-2D 25 Nov 06:27:23 06:31:12 67° 102° (ESE) 06:35:00 145.860 - 145.880
DOVE 4 25 Nov 06:33:42 06:38:15 32° 295° (WNW) 06:42:36 437.250
NUDT-PHONESAT 25 Nov 06:38:52 06:42:33 60° 101° (E) 06:46:14 437.300
STRAND 1 25 Nov 06:42:13 06:47:21 75° 73° (ENE) 06:52:31 437.568
XW-2B 25 Nov 06:42:23 06:46:13 86° 284° (WNW) 06:50:03 145.730 - 145.750
STARS 25 Nov 07:01:19 07:01:27 10° 274° (W) 07:01:35 437.465
XW-2C 25 Nov 07:08:26 07:12:04 43° 289° (WNW) 07:15:42 145.795 - 145.815
CUTE 1.7 + AOD 2 25 Nov 07:10:19 07:14:28 47° 99° (E) 07:18:36 437.475
YUBILEINY 25 Nov 07:12:51 07:20:43 35° 295° (WNW) 07:28:41 435.215
CUBEBUG 2 25 Nov 07:14:28 07:18:10 30° 95° (E) 07:21:49 437.445
XW-2F 25 Nov 07:15:10 07:18:44 39° 290° (WNW) 07:22:17 145.980 - 146.000
LilacSat-2 25 Nov 07:15:52 07:19:22 34° 291° (WNW) 07:22:52 437.200
HO-68 25 Nov 07:23:00 07:30:07 59° 102° (ESE) 07:37:10 435.675
AAUSAT CUBESAT 2 25 Nov 07:26:50 07:30:00 20° 92° (E) 07:33:10 437.432
SEEDS 25 Nov 07:32:27 07:36:36 50° 99° (E) 07:40:44 437.485
KAITUO 1B 25 Nov 07:35:48 07:39:07 29° 292° (WNW) 07:42:26 145.475/437.950
ZACube-1 25 Nov 07:43:21 07:46:25 20° 92° (E) 07:49:29 437.345
AO-7 25 Nov 07:54:23 07:56:44 11° 332° (NNW) 07:59:07 .
PCSat 25 Nov 07:55:11 08:00:33 56° 50° (NE) 08:05:52 145.827
CUTE-I 25 Nov 08:01:06 08:05:50 32° 297° (WNW) 08:10:31 437.470
UWE-3 25 Nov 08:02:04 08:06:09 55° 100° (E) 08:10:14 435.000/436.395/437.385
XW-2D 25 Nov 08:03:05 08:04:52 13° 299° (WNW) 08:06:40 145.860 - 145.880
FO-29 25 Nov 08:04:08 08:11:06 88° 254° (WSW) 08:18:52 435.910
NUDT-PHONESAT 25 Nov 08:14:05 08:15:56 13° 299° (WNW) 08:17:48 437.300
BEESAT 3 25 Nov 08:16:20 08:18:24 13° 26° (NNE) 08:20:25 437.485
STRAND 1 25 Nov 08:23:52 08:27:06 17° 271° (W) 08:30:21 437.568
XW-2A 25 Nov 08:28:03 08:31:25 74° 285° (WNW) 08:34:48 145.665 - 145.685
AO-73 25 Nov 08:31:00 08:35:04 53° 100° (E) 08:39:10 145.935
Oscar 11 25 Nov 08:42:30 08:46:43 48° 99° (E) 08:50:55 .
PRISM 25 Nov 08:42:56 08:45:43 18° 61° (ENE) 08:48:30 437.425
CUTE 1.7 + AOD 2 25 Nov 08:46:48 08:50:00 21° 297° (WNW) 08:53:12 437.475
CUBEBUG 2 25 Nov 08:51:10 08:54:45 28° 294° (WNW) 08:58:17 437.445
DELFI C3 25 Nov 08:53:06 08:55:13 14° 89° (E) 08:57:18 145.870
UNISAT 6 25 Nov 09:01:23 09:05:51 67° 75° (ENE) 09:10:16 437.425
AAUSAT CUBESAT 2 25 Nov 09:01:40 09:05:39 43° 290° (WNW) 09:09:36 437.432
TIGRISAT 25 Nov 09:04:31 09:09:00 66° 73° (ENE) 09:13:22 435.000
Max Valier Satellite 25 Nov 09:05:19 09:06:45 12° 89° (E) 09:08:12 145.860
SEEDS 25 Nov 09:08:53 09:11:57 20° 297° (WNW) 09:15:00 437.485
HO-68 25 Nov 09:11:12 09:17:32 35° 302° (WNW) 09:23:51 435.675
ZACube-1 25 Nov 09:18:58 09:22:55 43° 290° (WNW) 09:26:53 437.345
BEESAT 2 25 Nov 09:37:45 09:40:46 20° 33° (NNE) 09:43:46 435.950
PCSat 25 Nov 09:39:06 09:43:38 28° 250° (WSW) 09:48:09 145.827
UWE-3 25 Nov 09:39:31 09:42:14 17° 298° (WNW) 09:44:57 435.000/436.395/437.385
AO-85 25 Nov 09:43:27 09:46:17 16° 27° (NNE) 09:49:15 145.980
POLYITAN 1 25 Nov 09:51:08 09:52:41 12° 57° (ENE) 09:54:13 437.675
FO-29 25 Nov 09:52:21 09:57:17 20° 277° (W) 10:02:34 435.910
BEESAT 3 25 Nov 09:52:52 09:56:47 55° 48° (NE) 10:00:37 437.485
AIST 2D 25 Nov 10:05:21 10:08:26 31° 70° (ENE) 10:11:35 435.315
AO-73 25 Nov 10:08:09 10:10:57 18° 298° (WNW) 10:13:46 145.935
QB50P2 25 Nov 10:12:57 10:16:05 20° 63° (ENE) 10:19:13 145.880/145.840
PRISM 25 Nov 10:16:31 10:20:35 55° 259° (W) 10:24:42 437.425
FALCONSAT 3 25 Nov 10:16:43 10:17:58 11° 180° (S) 10:19:13 435.103
Oscar 11 25 Nov 10:19:19 10:22:33 21° 297° (WNW) 10:25:47 .
EO-88 25 Nov 10:25:18 10:28:58 69° 103° (ESE) 10:32:36 145.990 - 145.960
DELFI C3 25 Nov 10:26:23 10:30:20 60° 287° (WNW) 10:34:16 145.870
ESTCUBE 1 25 Nov 10:36:08 10:37:54 12° 87° (E) 10:39:38 437.505/2401.250
LO-87 25 Nov 10:37:02 10:38:39 13° 90° (E) 10:40:15 145.935 - 145.965
Max Valier Satellite 25 Nov 10:37:19 10:40:57 59° 287° (WNW) 10:44:35 145.860
UNISAT 6 25 Nov 10:40:25 10:43:00 15° 271° (W) 10:45:34 437.425
TIGRISAT 25 Nov 10:43:29 10:46:06 15° 271° (W) 10:48:42 435.000
DUCHIFAT 1 25 Nov 10:54:29 10:58:19 35° 68° (ENE) 11:02:09 145.980
EO-79 25 Nov 11:07:01 11:11:12 60° 72° (ENE) 11:15:23 145.935-145.965
NANOSAT C BR1 25 Nov 11:07:18 11:11:25 54° 72° (ENE) 11:15:32 145.865
BEESAT 2 25 Nov 11:14:55 11:18:59 79° 234° (SW) 11:22:58 435.950
AO-85 25 Nov 11:23:03 11:27:35 57° 47° (NE) 11:32:28 145.980
POLYITAN 1 25 Nov 11:23:33 11:27:47 89° 86° (E) 11:32:02 437.675
AO-91 25 Nov 11:23:33 11:26:47 16° 57° (ENE) 11:29:58 145.960
Gurwin Techsat 1B 25 Nov 11:23:52 11:26:24 14° 52° (NE) 11:28:56 435.225
BUGSAT 1 25 Nov 11:30:02 11:33:21 23° 64° (ENE) 11:36:39 437.445
BEESAT 3 25 Nov 11:31:12 11:33:57 18° 247° (WSW) 11:36:39 437.485
AO-7 25 Nov 11:31:46 11:34:25 12° 29° (NNE) 11:37:04 .
AIST 2D 25 Nov 11:39:09 11:41:41 19° 267° (W) 11:44:15 435.315
QB50P2 25 Nov 11:47:29 11:51:34 47° 261° (W) 11:55:40 145.880/145.840
Oscar 19 25 Nov 12:00:06 12:04:35 31° 63° (ENE) 12:09:04 437.125/150
EO-88 25 Nov 12:00:42 12:02:05 12° 300° (WNW) 12:03:27 145.990 - 145.960
O/OREOS (USA 219) 25 Nov 12:02:05 12:05:25 20° 102° (ESE) 12:08:46 437.305
LO-87 25 Nov 12:08:55 12:12:22 50° 288° (WNW) 12:15:47 145.935 - 145.965
ESTCUBE 1 25 Nov 12:10:44 12:15:19 85° 286° (WNW) 12:19:51 437.505/2401.250
VELOX 1 25 Nov 12:12:18 12:15:25 18° 91° (E) 12:18:31 145.980
DUCHIFAT 1 25 Nov 12:30:34 12:34:03 25° 266° (W) 12:37:32 145.980
SPROUT 25 Nov 12:34:24 12:38:31 45° 99° (E) 12:42:34 437.525
NANOSAT C BR1 25 Nov 12:44:42 12:47:27 17° 269° (W) 12:50:11 145.865
EO-79 25 Nov 12:44:52 12:47:21 15° 270° (W) 12:49:50 145.935-145.965
AO-91 25 Nov 12:57:05 13:02:30 85° 76° (ENE) 13:07:49 145.960
Gurwin Techsat 1B 25 Nov 13:00:09 13:05:27 72° 72° (ENE) 13:10:46 435.225
POLYITAN 1 25 Nov 13:03:45 13:04:10 10° 273° (W) 13:04:37 437.675
AO-85 25 Nov 13:03:56 13:07:46 25° 245° (WSW) 13:11:48 145.980
BUGSAT 1 25 Nov 13:04:35 13:08:30 39° 262° (W) 13:12:25 437.445
UKube-1 25 Nov 13:16:59 13:18:49 12° 88° (E) 13:20:41 .
AO-7 25 Nov 13:17:30 13:24:46 36° 53° (NE) 13:32:04 .
Oscar 19 25 Nov 13:38:59 13:43:46 40° 262° (W) 13:48:37 437.125/150
O/OREOS (USA 219) 25 Nov 13:39:56 13:44:27 54° 300° (WNW) 13:48:59 437.305
M-CUBED/EXP-1 PRIME 25 Nov 13:43:39 13:47:21 64° 67° (ENE) 13:51:24 437.505
VELOX 1 25 Nov 13:47:49 13:52:11 54° 289° (WNW) 13:56:30 145.980
ESTCUBE 1 25 Nov 13:49:25 13:51:24 13° 304° (NW) 13:53:22 437.505/2401.250
ITAMSAT 1 25 Nov 14:02:29 14:06:54 28° 62° (ENE) 14:11:19 435.822/435.867
50 SAT 25 Nov 14:09:13 14:12:27 81° 101° (ESE) 14:15:39 437.505
SPROUT 25 Nov 14:10:55 14:14:07 21° 297° (WNW) 14:17:19 437.525
NO-84 25 Nov 14:12:07 14:15:32 41° 138° (SE) 14:19:14 435.350 FM
DX 1 25 Nov 14:18:40 14:23:05 79° 102° (ESE) 14:27:27 434.975-435.025
DOVE 4 25 Nov 14:30:56 14:32:14 11° 51° (NE) 14:33:33 437.250
ITUPSAT 1 25 Nov 14:32:30 14:34:22 12° 87° (E) 14:36:12 437.325
AO-91 25 Nov 14:36:15 14:39:30 16° 273° (W) 14:42:45 145.960
Gurwin Techsat 1B 25 Nov 14:42:22 14:45:57 18° 271° (W) 14:49:33 435.225
UKube-1 25 Nov 14:51:02 14:55:23 77° 288° (WNW) 14:59:42 .
AO-7 25 Nov 15:08:50 15:17:04 68° 255° (WSW) 15:25:23 .
YUBILEINY 25 Nov 15:20:20 15:28:29 39° 67° (ENE) 15:36:35 435.215
M-CUBED/EXP-1 PRIME 25 Nov 15:20:32 15:22:17 13° 267° (W) 15:24:05 437.505
O/OREOS (USA 219) 25 Nov 15:23:40 15:24:57 11° 322° (NW) 15:26:14 437.305
MOZHAYETS 4 25 Nov 15:36:42 15:41:16 66° 101° (ESE) 15:45:49
ITAMSAT 1 25 Nov 15:41:05 15:46:07 48° 260° (W) 15:51:13 435.822/435.867
NO-84 25 Nov 15:49:10 15:52:50 48° 339° (NNW) 15:56:48 435.350 FM
BEESAT 25 Nov 15:55:10 15:59:56 72° 103° (ESE) 16:04:40 436.000
DX 1 25 Nov 15:56:19 15:58:40 14° 303° (WNW) 16:01:02 434.975-435.025
CUBESAT XI-V 25 Nov 16:00:42 16:04:52 30° 95° (E) 16:09:01 437.345
DOVE 4 25 Nov 16:03:44 16:08:47 57° 71° (ENE) 16:14:00 437.250
ITUPSAT 1 25 Nov 16:08:04 16:12:52 90° 258° (WSW) 16:17:38 437.325
CUTE-I 25 Nov 16:08:40 16:12:09 18° 56° (NE) 16:15:40 437.470
HO-68 25 Nov 16:11:28 16:15:39 17° 45° (NE) 16:19:51 435.675
XW-2C 25 Nov 16:20:17 16:22:28 15° 62° (ENE) 16:24:40 145.795 - 145.815
XW-2F 25 Nov 16:26:22 16:28:41 16° 63° (ENE) 16:31:02 145.980 - 146.000
LilacSat-2 25 Nov 16:27:36 16:30:17 19° 64° (ENE) 16:33:00 437.200
UKube-1 25 Nov 16:29:31 16:30:38 11° 305° (NW) 16:31:46 .
KAITUO 1B 25 Nov 16:45:32 16:48:16 20° 65° (ENE) 16:51:01 145.475/437.950
KKS-1 25 Nov 16:55:17 16:58:56 24° 94° (E) 17:02:31 437.445
STARS 25 Nov 17:07:11 17:09:19 13° 89° (E) 17:11:26 437.465
AO-7 25 Nov 17:07:12 17:11:27 15° 276° (W) 17:15:44 .
XW-2D 25 Nov 17:11:39 17:15:17 52° 73° (ENE) 17:18:58 145.860 - 145.880
MOZHAYETS 4 25 Nov 17:14:56 17:17:56 18° 300° (WNW) 17:20:57
YUBILEINY 25 Nov 17:17:06 17:25:43 58° 269° (W) 17:34:16 435.215
NUDT-PHONESAT 25 Nov 17:20:56 17:24:24 44° 72° (ENE) 17:27:55 437.300
RS-15 25 Nov 17:24:29 17:35:24 40° 108° (ESE) 17:46:16 29.354- 29.394
XW-2B 25 Nov 17:26:33 17:30:17 75° 75° (ENE) 17:34:03 145.730 - 145.750
NO-84 25 Nov 17:27:16 17:30:49 31° 360° (N) 17:34:34 435.350 FM
BEESAT 25 Nov 17:34:04 17:37:11 18° 302° (WNW) 17:40:18 436.000
CUBESAT XI-V 25 Nov 17:38:00 17:42:16 35° 293° (WNW) 17:46:32 437.345
DOVE 4 25 Nov 17:42:45 17:46:48 23° 270° (W) 17:50:58 437.250
CUTE-I 25 Nov 17:46:08 17:51:31 86° 253° (WSW) 17:56:57 437.470
ITUPSAT 1 25 Nov 17:47:29 17:50:00 14° 304° (NW) 17:52:30 437.325
XW-2C 25 Nov 17:52:35 17:56:15 53° 260° (W) 17:59:57 145.795 - 145.815
HO-68 25 Nov 17:54:59 18:02:03 63° 67° (ENE) 18:09:09 435.675
XW-2F 25 Nov 17:58:51 18:02:27 48° 261° (W) 18:06:05 145.980 - 146.000
LilacSat-2 25 Nov 18:00:45 18:04:18 40° 262° (W) 18:07:53 437.200
CUTE 1.7 + AOD 2 25 Nov 18:06:04 18:10:08 51° 71° (ENE) 18:14:16 437.475
CUBEBUG 2 25 Nov 18:15:27 18:19:40 41° 70° (ENE) 18:23:47 437.445
KAITUO 1B 25 Nov 18:18:36 18:22:01 36° 263° (W) 18:25:29 145.475/437.950
AAUSAT CUBESAT 2 25 Nov 18:20:16 18:23:29 22° 64° (ENE) 18:26:43 437.432
SEEDS 25 Nov 18:27:09 18:31:12 53° 72° (ENE) 18:35:19 437.485
KKS-1 25 Nov 18:31:25 18:35:38 41° 292° (WNW) 18:39:48 437.445
STARS 25 Nov 18:41:46 18:46:11 73° 286° (WNW) 18:50:31 437.465
ZACube-1 25 Nov 18:42:25 18:45:54 25° 65° (ENE) 18:49:19 437.345
XW-2D 25 Nov 18:47:48 18:49:47 14° 270° (W) 18:51:47 145.860 - 145.880
STRAND 1 25 Nov 18:49:53 18:53:31 19° 90° (E) 18:57:07 437.568
NUDT-PHONESAT 25 Nov 18:56:16 18:58:29 15° 269° (W) 19:00:43 437.300
UWE-3 25 Nov 19:02:01 19:06:21 69° 75° (ENE) 19:10:37 435.000/436.395/437.385
XW-2A 25 Nov 19:02:03 19:05:19 60° 74° (ENE) 19:08:37 145.665 - 145.685
NO-84 25 Nov 19:04:51 19:08:50 47° 21° (NNE) 19:12:58 435.350 FM
FO-29 25 Nov 19:12:01 19:16:10 15° 80° (E) 19:20:11 435.910
ISS 25 Nov 19:16:22 19:18:40 18° 138° (SE) 19:20:58 437.550
YUBILEINY 25 Nov 19:17:22 19:20:26 12° 292° (WNW) 19:23:30 435.215
AO-73 25 Nov 19:29:33 19:33:45 64° 73° (ENE) 19:37:52 145.935
CUTE-I 25 Nov 19:29:50 19:32:22 13° 274° (W) 19:34:56 437.470
RS-15 25 Nov 19:34:44 19:47:07 77° 312° (NW) 19:59:22 29.354- 29.394
Oscar 11 25 Nov 19:40:24 19:44:36 57° 72° (ENE) 19:48:51 .
DELFI C3 25 Nov 19:42:00 19:44:08 14° 60° (ENE) 19:46:17 145.870
CUTE 1.7 + AOD 2 25 Nov 19:43:27 19:46:17 17° 270° (W) 19:49:08 437.475
HO-68 25 Nov 19:44:01 19:50:13 31° 267° (W) 19:56:29 435.675
Max Valier Satellite 25 Nov 19:48:56 19:49:23 10° 59° (ENE) 19:49:49 145.860
nSIGHT-1 25 Nov 19:51:54 19:54:56 39° 147° (SSE) 19:57:58 .
CUBEBUG 2 25 Nov 19:52:48 19:56:25 24° 267° (W) 19:59:59 437.445
AAUSAT CUBESAT 2 25 Nov 19:54:47 19:58:41 41° 262° (W) 20:02:39 437.432
SEEDS 25 Nov 20:04:30 20:07:13 17° 270° (W) 20:09:57 437.485
ZACube-1 25 Nov 20:18:05 20:22:02 36° 263° (W) 20:25:56 437.345
STARS 25 Nov 20:20:45 20:21:42 11° 306° (NW) 20:22:39 437.465
SO-50 25 Nov 20:25:35 20:29:15 25° 115° (ESE) 20:32:57 436.795
STRAND 1 25 Nov 20:28:05 20:33:09 64° 289° (WNW) 20:38:11 437.568
O/OREOS (USA 219) 25 Nov 20:29:08 20:31:19 13° 41° (NE) 20:33:30 437.305
UWE-3 25 Nov 20:41:03 20:43:16 14° 271° (W) 20:45:27 435.000/436.395/437.385
NO-84 25 Nov 20:42:12 20:46:17 51° 220° (SW) 20:50:26 435.350 FM
ISS 25 Nov 20:51:28 20:54:45 86° 158° (SSE) 20:58:03 437.550
FO-29 25 Nov 20:54:50 21:02:42 68° 101° (E) 21:09:59 435.910
EO-88 25 Nov 21:05:53 21:09:23 48° 72° (ENE) 21:12:54 145.990 - 145.960
AO-73 25 Nov 21:08:07 21:10:23 14° 271° (W) 21:12:38 145.935
DELFI C3 25 Nov 21:14:25 21:18:22 66° 258° (WSW) 21:22:23 145.870
LO-87 25 Nov 21:17:36 21:18:18 10° 60° (ENE) 21:19:00 145.935 - 145.965
Oscar 11 25 Nov 21:18:23 21:21:07 16° 270° (W) 21:23:51 .
Max Valier Satellite 25 Nov 21:18:57 21:22:35 81° 254° (WSW) 21:26:16 145.860
nSIGHT-1 25 Nov 21:27:55 21:31:06 57° 346° (NNW) 21:34:17 .
ESTCUBE 1 25 Nov 21:38:32 21:41:35 18° 60° (ENE) 21:44:39 437.505/2401.250
RS-15 25 Nov 21:50:30 22:01:52 40° 342° (NNW) 22:12:56 29.354- 29.394
PRISM 25 Nov 21:55:02 21:57:34 16° 90° (E) 22:00:04 437.425
SO-50 25 Nov 22:05:05 22:09:27 50° 315° (NW) 22:13:53 436.795
O/OREOS (USA 219) 25 Nov 22:07:03 22:11:37 71° 62° (ENE) 22:16:08 437.305
STRAND 1 25 Nov 22:09:41 22:11:22 12° 308° (NW) 22:13:02 437.568
UNISAT 6 25 Nov 22:25:47 22:30:06 90° 282° (WNW) 22:34:21 437.425
ISS 25 Nov 22:28:16 22:31:26 44° 356° (N) 22:34:36 437.550
TIGRISAT 25 Nov 22:28:45 22:33:02 89° 112° (ESE) 22:37:17 435.000
FO-29 25 Nov 22:40:22 22:47:08 33° 302° (WNW) 22:53:36 435.910
EO-88 25 Nov 22:41:22 22:43:18 14° 270° (W) 22:45:15 145.990 - 145.960
PCSat 25 Nov 22:41:37 22:45:44 22° 108° (ESE) 22:49:51 145.827
LO-87 25 Nov 22:47:33 22:51:08 77° 258° (WSW) 22:54:45 145.935 - 145.965
AIST 2D 25 Nov 22:59:25 23:02:20 23° 95° (E) 23:05:13 435.315
nSIGHT-1 25 Nov 23:04:32 23:07:39 45° 6° (N) 23:10:45 .
POLYITAN 1 25 Nov 23:06:53 23:08:03 11° 87° (E) 23:09:12 437.675
VELOX 1 25 Nov 23:12:35 23:16:17 26° 64° (ENE) 23:19:59 145.980
ESTCUBE 1 25 Nov 23:13:31 23:17:57 61° 259° (WSW) 23:22:26 437.505/2401.250
QB50P2 25 Nov 23:28:56 23:32:10 21° 93° (E) 23:35:22 145.880/145.840
PRISM 25 Nov 23:29:05 23:33:11 57° 289° (WNW) 23:37:15 437.425
SPROUT 25 Nov 23:30:39 23:34:50 54° 71° (ENE) 23:39:01 437.525
DX 1 25 Nov 23:43:34 23:46:02 15° 58° (ENE) 23:48:30 434.975-435.025
O/OREOS (USA 219) 25 Nov 23:47:56 23:50:26 15° 261° (W) 23:52:56 437.305
SO-50 25 Nov 23:48:17 23:50:57 15° 337° (NNW) 23:53:39 436.795
UNISAT 6 26 Nov 00:04:31 00:06:08 12° 303° (WNW) 00:07:45 437.425
ISS 26 Nov 00:04:56 00:08:13 63° 16° (NNE) 00:11:28 437.550
RS-15 26 Nov 00:07:04 00:18:16 39° 16° (NNE) 00:28:59 29.354- 29.394
TIGRISAT 26 Nov 00:07:24 00:09:04 12° 303° (WNW) 00:10:44 435.000
DUCHIFAT 1 26 Nov 00:09:50 00:13:44 37° 98° (E) 00:17:37 145.980
UKube-1 26 Nov 00:14:15 00:17:14 18° 60° (ENE) 00:20:14 .
NANOSAT C BR1 26 Nov 00:23:13 00:27:22 60° 101° (E) 00:31:29 145.865
PCSat 26 Nov 00:23:14 00:28:38 67° 307° (NW) 00:34:04 145.827
EO-79 26 Nov 00:23:25 00:27:36 68° 101° (ESE) 00:31:47 145.935-145.965
AIST 2D 26 Nov 00:32:26 00:35:28 26° 292° (WNW) 00:38:28 435.315
50 SAT 26 Nov 00:39:05 00:42:08 41° 71° (ENE) 00:45:14 437.505
POLYITAN 1 26 Nov 00:40:11 00:44:24 81° 285° (WNW) 00:48:35 437.675
nSIGHT-1 26 Nov 00:40:49 00:44:01 74° 205° (SSW) 00:47:12 .
BUGSAT 1 26 Nov 00:42:47 00:45:56 21° 93° (E) 00:49:02 437.445
AO-91 26 Nov 00:46:12 00:48:09 13° 85° (E) 00:50:01 145.960
VELOX 1 26 Nov 00:48:23 00:52:33 39° 262° (W) 00:56:46 145.980
QB50P2 26 Nov 01:04:09 01:08:08 42° 290° (WNW) 01:12:05 145.880/145.840
MOZHAYETS 4 26 Nov 01:07:30 01:09:50 14° 57° (ENE) 01:12:10
SPROUT 26 Nov 01:08:13 01:11:03 17° 269° (W) 01:13:53 437.525
Gurwin Techsat 1B 26 Nov 01:13:20 01:17:22 21° 91° (E) 01:21:22 435.225
DX 1 26 Nov 01:17:16 01:21:38 76° 255° (WSW) 01:26:04 434.975-435.025
BEESAT 3 26 Nov 01:22:45 01:26:09 27° 117° (ESE) 01:29:34 437.485
BEESAT 26 Nov 01:29:06 01:32:23 19° 59° (ENE) 01:35:40 436.000
SO-50 26 Nov 01:32:46 01:33:23 10° 3° (N) 01:33:59 436.795
ISS 26 Nov 01:41:35 01:44:34 33° 215° (SW) 01:47:32 437.550
ITUPSAT 1 26 Nov 01:41:45 01:45:29 23° 61° (ENE) 01:49:13 437.325
DUCHIFAT 1 26 Nov 01:45:52 01:49:13 24° 296° (WNW) 01:52:34 145.980
Oscar 19 26 Nov 01:46:13 01:51:17 53° 100° (E) 01:56:21 437.125/150
UKube-1 26 Nov 01:48:36 01:52:51 57° 259° (WSW) 01:57:09 .
NANOSAT C BR1 26 Nov 02:00:00 02:02:38 17° 299° (WNW) 02:05:17 145.865
EO-79 26 Nov 02:00:28 02:02:52 15° 301° (WNW) 02:05:16 145.935-145.965
PCSat 26 Nov 02:09:14 02:13:04 19° 330° (NNW) 02:16:54 145.827
50 SAT 26 Nov 02:12:54 02:14:25 13° 269° (W) 02:15:57 437.505
BUGSAT 1 26 Nov 02:17:41 02:21:25 37° 291° (WNW) 02:25:07 437.445
nSIGHT-1 26 Nov 02:17:57 02:19:48 15° 223° (SW) 02:21:38 .
POLYITAN 1 26 Nov 02:18:27 02:19:27 11° 304° (NW) 02:20:27 437.675
AO-91 26 Nov 02:20:48 02:25:19 71° 287° (WNW) 02:29:19 145.960
RS-15 26 Nov 02:20:58 02:33:02 75° 47° (NE) 02:44:25 29.354- 29.394
MOZHAYETS 4 26 Nov 02:41:47 02:46:21 86° 259° (W) 02:50:56
BEESAT 2 26 Nov 02:46:00 02:49:57 55° 123° (ESE) 02:53:56 435.950
M-CUBED/EXP-1 PRIME 26 Nov 02:52:10 02:56:13 30° 101° (E) 03:00:18 437.505
Gurwin Techsat 1B 26 Nov 02:52:28 02:57:44 61° 290° (WNW) 03:02:58 435.225
BEESAT 3 26 Nov 02:59:46 03:03:33 40° 316° (NW) 03:07:22 437.485
BEESAT 26 Nov 03:04:55 03:09:40 67° 258° (WSW) 03:14:27 436.000
AO-7 26 Nov 03:06:24 03:13:50 34° 95° (E) 03:21:14 .
CUBESAT XI-V 26 Nov 03:07:12 03:11:34 44° 69° (ENE) 03:15:59 437.345
SO-50 26 Nov 03:12:29 03:15:41 18° 27° (NNE) 03:18:55 436.795
ITUPSAT 1 26 Nov 03:18:21 03:23:00 51° 260° (W) 03:27:41 437.325
AO-85 26 Nov 03:21:16 03:24:59 44° 121° (ESE) 03:28:55 145.980
Oscar 19 26 Nov 03:26:08 03:30:18 25° 299° (WNW) 03:34:29 437.125/150
ITAMSAT 1 26 Nov 03:49:59 03:54:59 45° 99° (E) 03:59:56 435.822/435.867
KKS-1 26 Nov 03:56:23 04:00:27 35° 67° (ENE) 04:04:33 437.445
PCSat 26 Nov 03:58:01 03:58:47 10° 356° (N) 03:59:32 145.827
AO-91 26 Nov 04:00:18 04:00:45 10° 308° (NW) 04:01:13 145.960
DOVE 4 26 Nov 04:01:01 04:03:17 13° 84° (E) 04:05:30 437.250
STARS 26 Nov 04:06:36 04:09:51 20° 61° (ENE) 04:13:07 437.465
MOZHAYETS 4 26 Nov 04:23:13 04:24:12 11° 274° (W) 04:25:11
BEESAT 2 26 Nov 04:24:35 04:27:57 24° 323° (NW) 04:31:20 435.950
M-CUBED/EXP-1 PRIME 26 Nov 04:26:21 04:30:37 39° 298° (WNW) 04:34:55 437.505
YUBILEINY 26 Nov 04:26:24 04:34:11 37° 84° (E) 04:42:01 435.215
RS-15 26 Nov 04:34:10 04:44:37 39° 253° (WSW) 04:54:37 29.354- 29.394
Gurwin Techsat 1B 26 Nov 04:34:52 04:36:39 12° 309° (NW) 04:38:27 435.225
BEESAT 3 26 Nov 04:40:45 04:42:09 11° 338° (NNW) 04:43:32 437.485
CUBESAT XI-V 26 Nov 04:45:26 04:49:07 24° 268° (W) 04:52:52 437.345
SO-50 26 Nov 04:52:21 04:56:59 68° 49° (NE) 05:01:39 436.795
AO-7 26 Nov 04:58:52 05:07:07 66° 296° (WNW) 05:15:21 .
AO-85 26 Nov 05:02:07 05:05:34 27° 322° (NW) 05:09:12 145.980
XW-2C 26 Nov 05:22:43 05:24:27 13° 89° (E) 05:26:09 145.795 - 145.815
XW-2F 26 Nov 05:28:12 05:30:08 13° 89° (E) 05:32:04 145.980 - 146.000
ITAMSAT 1 26 Nov 05:29:48 05:34:16 30° 298° (WNW) 05:38:42 435.822/435.867
FO-29 26 Nov 05:30:06 05:33:18 13° 41° (NE) 05:36:34 435.910
LilacSat-2 26 Nov 05:30:44 05:33:16 17° 91° (E) 05:35:48 437.200
KKS-1 26 Nov 05:33:10 05:37:03 29° 265° (W) 05:40:57 437.445
DOVE 4 26 Nov 05:36:35 05:41:47 89° 101° (ESE) 05:46:40 437.250
STARS 26 Nov 05:41:31 05:45:51 52° 259° (W) 05:50:12 437.465
PCSat 26 Nov 05:41:39 05:44:42 15° 23° (NNE) 05:47:44 145.827
KAITUO 1B 26 Nov 05:46:19 05:48:48 17° 91° (E) 05:51:18 145.475/437.950
CUTE-I 26 Nov 05:59:49 06:04:27 29° 94° (E) 06:09:03 437.470
STRAND 1 26 Nov 06:08:49 06:13:35 40° 66° (ENE) 06:18:23 437.568
XW-2D 26 Nov 06:14:14 06:17:57 46° 99° (E) 06:21:38 145.860 - 145.880
